Regional Weather Roundup
Issued by NWS Bismarck, ND

Home | Current Version | Previous Version | Text Only | Print | Product List | Glossary On
Versions: 1 2 3 4 5 6 7 8 9 10 11 12 13 14 15 16 17 18 19 20 21 22 23 24 25 26 27 28 29 30 31 32 33 34 35 36 37 38 39 40 41 42 43 44 45 46 47 48 49 50
000
ASUS43 KBIS 271510
RWRBIS

NWR BROADCAST TEXT
NATIONAL WEATHER SERVICE BISMARCK ND
1000 AM CDT TUE SEP 27 2016

NOTE: "FAIR" INDICATES FEW OR NO CLOUDS BELOW 12,000 FEET WITH NO
SIGNIFICANT WEATHER AND/OR OBSTRUCTIONS TO VISIBILITY.


CITY           SKY/WX    TMP DP  RH WIND       PRES   REMARKS
WILLISTON      SUNNY     50  44  80 CALM      30.00F
MINOT          SUNNY     53  40  61 CALM      29.99S
MINOT AFB      SUNNY     54  40  59 NW2       29.99S
BISMARCK       SUNNY     51  41  68 CALM      30.02F
DICKINSON      SUNNY     56  47  71 W3        30.01S
GARRISON         N/A     54  41  61 CALM      30.00F
HETTINGER ARPT SUNNY     56  47  71 CALM      30.05R
JAMESTOWN      SUNNY     54  40  59 NW10      29.96S
BEACH          FAIR      55  50  82 S3        30.05S
CARRINGTON     FAIR      54  39  58 NW12      30.00S
HAZEN          FAIR      46  41  81 SW5       30.03F
LINTON         FAIR      50  45  81 NW3       30.03S
MANDAN         FAIR      54  39  58 CALM      30.02S
RUGBY          FAIR      46  41  81 NW8       29.99S
STANLEY        FAIR      50  41  71 CALM      30.03S
WATFORD CITY   FAIR      48  43  81 CALM      30.02S
$$

CITY           SKY/WX    TMP DP  RH WIND       PRES   REMARKS
GRAND FORKS    MOSUNNY   51  42  71 NW15      29.92R
GRAND FORKS AF SUNNY     51  41  68 N14G23    29.93R
DEVILS LAKE    SUNNY     51  37  58 NW15      29.96F
FARGO          SUNNY     53  40  61 NW14      29.91F
CANDO          FAIR      50  39  66 NW12      29.99F
CAVALIER       CLOUDY    48  41  76 NW13      29.93S
GRAFTON        CLOUDY    48  43  81 NW16      29.94S
GWINNER        FAIR      54  39  58 NW10      29.96S
LANGDON        FAIR      48  41  76 NW15      29.95S
ROLLA          FAIR      50  36  57 N13       29.99S
WALHALLA       FAIR      48  45  87 NW12G21   29.94S
$$

CITY           SKY/WX    TMP DP  RH WIND       PRES   REMARKS
ABERDEEN       SUNNY     59  39  47 NW6       29.99S
MOBRIDGE       SUNNY     55  43  63 NW5       30.00S
BUFFALO          N/A     58  48  69 W3        29.98S
RAPID CITY     SUNNY     63  46  54 CALM      30.08S
GLASGOW        SUNNY     52  46  80 S9        29.97R
SIDNEY         SUNNY     49  45  86 S7        30.00F
WOLF POINT     SUNNY     50  44  80 CALM      29.98S
GLENDIVE       SUNNY     52  48  86 S7        30.01S
MILES CITY     SUNNY     52  46  80 S6        30.03S
BAKER          SUNNY     54  48  80 CALM      30.05S
$$

CITY           SKY/WX    TMP DP  RH WIND       PRES   REMARKS
BILLINGS       SUNNY     63  43  48 SW20      30.09S
GREAT FALLS    SUNNY     63  42  46 S15       30.04S
REGINA         SUNNY     52  37  58 SE15      29.95S
ESTEVAN        MOSUNNY   52  41  66 SE5       30.00S
$$





USA.gov is the U.S. government's official web portal to all federal, state and local government web resources and services.